GW5201 Weather Reports


time (UTC)temp
C
wind
direction
speed
KPH
gust
KPH
rain 1hr
cm
rain 24hr
cm
rain mn
cm
humidity
%
barometer
mb
20260504100216 6 332 0.0 0.0 0.00 0.00 0.00 84 1015.7
20260504081803 7 37 0.0 1.6 0.00 0.00 0.00 75 1015.5
20260504080903 7 0 0.0 0.0 0.00 0.00 0.00 75 1015.5
20260504050003 7 0 0.0 0.0 0.00 0.00 0.00 65 1015.4
20260504045403 7 8 0.0 0.0 0.00 0.00 0.00 67 1015.4
20260504044503 7 8 0.0 1.6 0.00 0.00 0.00 64 1015.2
20260504043603 7 0 0.0 0.0 0.00 0.00 0.00 64 1015.1
20260504042703 7 0 0.0 0.0 0.00 0.00 0.00 65 1015.0
20260504041803 7 0 0.0 0.0 0.00 0.00 0.00 68 1014.9
20260504040903 7 0 0.0 0.0 0.00 0.00 0.00 66 1014.8
20260504040003 7 8 0.0 1.6 0.00 0.00 0.00 65 1014.7
20260504035403 7 8 0.0 1.6 0.00 0.00 0.00 64 1014.7
20260504034503 7 0 0.0 0.0 0.00 0.00 0.00 65 1014.7
20260504033603 7 0 0.0 0.0 0.00 0.00 0.00 67 1014.7
20260504032703 7 0 0.0 0.0 0.00 0.00 0.00 66 1014.6
20260504031803 7 0 0.0 0.0 0.00 0.00 0.00 66 1014.6
20260504030903 7 0 0.0 0.0 0.00 0.00 0.00 65 1014.6
20260504030003 7 0 0.0 0.0 0.00 0.00 0.00 65 1014.5
20260504025403 8 0 0.0 0.0 0.00 0.00 0.00 62 1014.6
20260504024503 8 0 0.0 0.0 0.00 0.00 0.00 60 1014.5
20260504023603 8 8 0.0 1.6 0.00 0.00 0.00 61 1014.7
20260504022703 7 0 0.0 0.0 0.00 0.00 0.00 63 1014.6
20260504021803 7 0 0.0 0.0 0.00 0.00 0.00 63 1014.7
20260504020903 8 0 0.0 0.0 0.00 0.00 0.00 61 1014.6
20260504020217 8 0 0.0 0.0 0.00 0.00 0.00 60 1014.6
20260504015403 8 8 0.0 0.0 0.00 0.00 0.00 56 1014.5
20260504014503 8 0 0.0 0.0 0.00 0.00 0.00 57 1014.5
20260504013603 8 0 0.0 0.0 0.00 0.00 0.00 58 1014.5
20260504012919 8 0 0.0 0.0 0.00 0.00 0.00 56 1014.5
20260504011803 9 8 0.0 1.6 0.00 0.00 0.00 53 1014.3
20260504011118 10 8 0.0 1.6 0.00 0.00 0.00 54 1014.2
20260504010003 10 0 0.0 0.0 0.00 0.00 0.00 53 1014.1
20260504005403 10 0 0.0 0.0 0.00 0.00 0.00 53 1014.0
20260504004503 10 8 0.0 1.6 0.00 0.00 0.00 50 1014.0
20260504003603 11 8 0.0 1.6 0.00 0.00 0.00 50 1013.8
20260504002919 11 8 0.0 1.6 0.00 0.00 0.00 48 1013.7
20260504001803 11 8 0.0 1.6 0.00 0.00 0.00 47 1013.5
20260504001117 11 8 0.0 1.6 0.00 0.00 0.00 46 1013.5
20260504000003 12 9 0.0 1.6 0.00 0.00 0.00 45 1013.4
20260503235403 12 32 0.0 1.6 0.00 0.00 0.00 44 1013.5
20260503234503 12 52 0.0 3.2 0.00 0.00 0.00 43 1013.5
20260503233603 13 337 0.0 3.2 0.00 0.00 0.00 41 1013.4
20260503232703 13 354 1.6 4.8 0.00 0.00 0.00 41 1013.2
20260503231803 13 35 1.6 9.7 0.00 0.00 0.00 39 1013.1
20260503230903 13 38 1.6 8.0 0.00 0.00 0.00 40 1013.0
20260503230216 13 343 0.0 3.2 0.00 0.00 0.00 41 1013.0
20260503225403 14 341 1.6 9.7 0.00 0.00 0.00 38 1012.9
20260503224503 14 13 3.2 12.9 0.00 0.00 0.00 36 1013.0
20260503223603 14 350 1.6 12.9 0.00 0.00 0.00 35 1013.0
20260503222703 14 32 1.6 8.0 0.00 0.00 0.00 35 1012.9
20260503221803 14 18 3.2 16.1 0.00 0.00 0.00 35 1013.0
20260503220903 14 76 3.2 16.1 0.00 0.00 0.00 34 1013.0
20260503220003 15 79 3.2 9.7 0.00 0.00 0.00 34 1013.0
20260503215403 15 37 3.2 9.7 0.00 0.00 0.00 35 1013.0
20260503214503 15 12 3.2 16.1 0.00 0.00 0.00 34 1013.0
20260503213603 15 32 3.2 12.9 0.00 0.00 0.00 36 1012.9
20260503212703 15 83 3.2 19.3 0.00 0.00 0.00 36 1012.9
20260503211803 15 80 3.2 19.3 0.00 0.00 0.00 34 1012.8
20260503210903 15 70 3.2 14.5 0.00 0.00 0.00 34 1012.9
20260503210003 15 13 3.2 17.7 0.00 0.00 0.00 36 1012.9
20260503205403 15 64 3.2 9.7 0.00 0.00 0.00 34 1012.9
20260503204503 15 27 3.2 12.9 0.00 0.00 0.00 37 1013.0
20260503203818 15 62 3.2 11.3 0.00 0.00 0.00 35 1012.9
20260503202703 15 53 3.2 25.7 0.00 0.00 0.00 35 1013.2
20260503201803 15 40 3.2 11.3 0.00 0.00 0.00 35 1013.1
20260503200903 15 78 3.2 12.9 0.00 0.00 0.00 37 1013.4
20260503200003 15 94 3.2 16.1 0.00 0.00 0.00 36 1013.3
20260503195619 15 105 3.2 16.1 0.00 0.00 0.00 37 1013.3
20260503194503 15 71 3.2 12.9 0.00 0.00 0.00 38 1013.4
20260503193603 15 70 3.2 11.3 0.00 0.00 0.00 37 1013.5
20260503192703 15 59 3.2 9.7 0.00 0.00 0.00 37 1013.4
20260503191803 15 20 4.8 14.5 0.00 0.00 0.00 36 1013.5
20260503191116 15 50 4.8 14.5 0.00 0.00 0.00 37 1013.7
20260503190003 15 30 4.8 14.5 0.00 0.00 0.00 37 1013.6
20260503185403 15 342 4.8 14.5 0.00 0.00 0.00 38 1013.6
20260503184503 15 16 4.8 16.1 0.00 0.00 0.00 35 1013.8
20260503183603 14 19 4.8 16.1 0.00 0.00 0.00 36 1013.8
20260503182703 14 32 4.8 16.1 0.00 0.00 0.00 34 1014.1
20260503181803 14 42 6.4 17.7 0.00 0.00 0.00 36 1014.0
20260503180903 14 48 4.8 16.1 0.00 0.00 0.00 35 1014.2
20260503180003 14 28 3.2 12.9 0.00 0.00 0.00 34 1014.0
20260503175403 14 70 3.2 9.7 0.00 0.00 0.00 34 1014.0
20260503174503 13 18 3.2 9.7 0.00 0.00 0.00 39 1014.2
20260503173603 13 338 3.2 12.9 0.00 0.00 0.00 39 1014.1
20260503172703 13 58 4.8 12.9 0.00 0.00 0.00 35 1014.2
20260503171803 13 261 1.6 12.9 0.00 0.00 0.00 42 1014.3
20260503170903 13 0 0.0 0.0 0.00 0.00 0.00 44 1014.4
20260503170218 12 0 0.0 0.0 0.00 0.00 0.00 40 1014.4
20260503160218 12 0 0.0 0.0 0.00 0.00 0.00 42 1014.7
20260503150903 11 0 0.0 0.0 0.00 0.00 0.00 47 1015.0